Flag for Bermuda Weather past 2 weeks in Hamilton, Bermuda

Now
66 °F

Mostly cloudy.


Feels Like: 66 °F
Forecast: 63 / 66 °F
Wind: 8 mph from Northeast

Location: Bermuda

Current Time: Feb 28, 2015 at 11:02:23 AM

Latest Report: Feb 28, 2015 at 9:55 AM


Visibility: N/A

Pressure: 30.36 "Hg

Humidity: 94%

Dew point: 64 °F

Location of HamiltonLocation

Historic Weather in Hamilton — Graph

°F

Hamilton temperature yesterday

Maximum temperature yesterday: 73 °F (at 10:55 AM)
Minimum temperature yesterday: 70 °F (at 12:55 AM)
Average temperature yesterday: 71 °F

Past Weeks' High & Low Weather Summary

 TemperatureHumidityPressure
High73 °F (Feb 27, 10:55 AM)94% (Feb 18, 10:55 PM)30.51 "Hg (Feb 18, 10:55 PM)
Low54 °F (Feb 15, 10:55 PM)51% (Feb 21, 1:55 PM)29.59 "Hg (Feb 15, 1:55 PM)
Average64 °F75%30.05 "Hg
* Reported Feb 13 9:55 AM — Feb 28 9:55 AM, Hamilton, Weather by CustomWeather, © 2015

Note: Actual official high and low records may vary slightly from our data, if they occured in-between our weather recording intervals... More about our weather records

Advertising

Hamilton weather history for previous 24 hours

 ConditionsComfort  
Time TempWeatherWind HumidityBarometerVisibility
9:55 AM
Sat, Feb 28
66 °FMostly cloudy.8 mph94%30.36 "HgN/A
8:55 AM66 °FMostly cloudy.8 mph88%30.36 "HgN/A
7:55 AM66 °FCloudy.6 mph88%30.33 "HgN/A
6:55 AM66 °FOvercast.2 mph88%30.30 "HgN/A
5:55 AM66 °FScattered showers. Mostly cloudy.3 mph88%30.30 "HgN/A
4:55 AM66 °FMostly cloudy.2 mph88%30.27 "HgN/A
3:55 AM64 °FMostly cloudy.No wind94%30.27 "HgN/A
2:55 AM64 °FLight rain. Mostly cloudy.6 mph94%30.24 "HgN/A
1:55 AM64 °FLight rain. Overcast.16 mph94%30.30 "Hg4 mi
12:55 AM70 °FMostly cloudy.21 mph94%30.24 "HgN/A
12:04 AM70 °FPartly cloudy.20 mph94%30.21 "HgN/A
11:55 PM
Fri, Feb 27
70 °FPassing clouds.21 mph94%30.21 "HgN/A
10:55 PM70 °FMostly cloudy.18 mph94%30.21 "HgN/A
10:02 PM70 °FScattered showers. Partly cloudy.18 mph94%30.21 "HgN/A
9:55 PM70 °FPartly cloudy.18 mph94%30.21 "HgN/A
8:55 PM70 °FScattered showers. Passing clouds.17 mph94%30.21 "HgN/A
7:55 PM70 °FMostly cloudy.17 mph94%30.21 "HgN/A
6:55 PM70 °FLight rain. Mostly cloudy.15 mph94%30.21 "Hg6 mi
5:55 PM72 °FScattered showers. Mostly cloudy.17 mph88%30.18 "HgN/A
4:55 PM72 °FLight rain. Mostly cloudy.20 mph88%30.18 "Hg6 mi
3:55 PM73 °FScattered showers. Mostly cloudy.18 mph83%30.15 "HgN/A
2:55 PM73 °FPartly sunny.21 mph83%30.12 "HgN/A
1:55 PM73 °FPartly sunny.20 mph83%30.15 "HgN/A
12:55 PM73 °FPartly sunny.20 mph83%30.15 "HgN/A
11:55 AM73 °FPartly sunny.21 mph83%30.15 "HgN/A
Weather by CustomWeather, © 2015

See weather overviewHow to use our weather pages